TimeEST,TemperatureF,Dew PointF,Humidity,Sea Level PressureIn,VisibilityMPH,Wind Direction,Wind SpeedMPH,Gust SpeedMPH,PrecipitationIn,Events,Conditions,WindDirDegrees,DateUTC
12:55 AM,42.8,36.7,79,30.16,10.0,SSW,4.6,-,N/A,,Clear,200,2013-01-20 05:55:00
1:55 AM,42.6,36.9,80,30.15,10.0,SW,4.6,-,N/A,,Clear,230,2013-01-20 06:55:00
2:55 AM,41.2,36.3,83,30.14,10.0,West,4.6,-,N/A,,Clear,260,2013-01-20 07:55:00
3:55 AM,41.4,37.0,85,30.14,10.0,SSW,5.8,-,N/A,,Clear,210,2013-01-20 08:55:00
4:55 AM,41.0,37.2,86,30.12,10.0,WSW,5.8,-,N/A,,Clear,240,2013-01-20 09:55:00
5:55 AM,40.5,36.9,87,30.11,10.0,SW,5.8,-,N/A,,Clear,220,2013-01-20 10:55:00
6:55 AM,40.3,36.7,87,30.11,10.0,SW,6.9,-,N/A,,Clear,220,2013-01-20 11:55:00
7:55 AM,40.5,36.7,86,30.11,10.0,WSW,8.1,-,N/A,,Clear,240,2013-01-20 12:55:00
8:55 AM,45.3,37.2,73,30.12,10.0,WSW,11.5,-,N/A,,Clear,240,2013-01-20 13:55:00
9:55 AM,50.7,35.8,57,30.12,10.0,WSW,12.7,-,N/A,,Clear,250,2013-01-20 14:55:00
10:55 AM,55.4,32.7,42,30.12,10.0,WSW,5.8,-,N/A,,Clear,240,2013-01-20 15:55:00
11:55 AM,59.2,30.7,34,30.09,10.0,WSW,8.1,-,N/A,,Clear,250,2013-01-20 16:55:00
12:55 PM,62.8,30.4,30,30.04,10.0,West,10.4,-,N/A,,Clear,260,2013-01-20 17:55:00
1:55 PM,64.6,30.2,28,30.01,10.0,West,9.2,-,N/A,,Clear,260,2013-01-20 18:55:00
2:55 PM,65.7,30.4,27,30.00,10.0,West,8.1,-,N/A,,Clear,270,2013-01-20 19:55:00
3:55 PM,65.8,31.5,28,30.00,10.0,WSW,9.2,-,N/A,,Clear,250,2013-01-20 20:55:00
4:55 PM,63.1,31.8,31,30.01,10.0,West,10.4,-,N/A,,Clear,260,2013-01-20 21:55:00
5:55 PM,57.0,32.4,39,30.02,10.0,WSW,4.6,-,N/A,,Clear,250,2013-01-20 22:55:00
6:55 PM,54.1,32.9,45,30.05,10.0,WSW,3.5,-,N/A,,Clear,250,2013-01-20 23:55:00
7:55 PM,47.5,35.4,63,30.06,10.0,Calm,Calm,-,N/A,,Clear,0,2013-01-21 00:55:00
8:55 PM,43.3,36.5,77,30.07,10.0,Calm,Calm,-,N/A,,Clear,0,2013-01-21 01:55:00
9:55 PM,42.3,34.3,74,30.09,10.0,NNW,5.8,-,N/A,,Clear,330,2013-01-21 02:55:00
10:55 PM,46.8,31.8,56,30.10,10.0,Calm,Calm,-,N/A,,Clear,0,2013-01-21 03:55:00
11:55 PM,39.0,33.6,81,30.10,10.0,Calm,Calm,-,N/A,,Clear,0,2013-01-21 04:55:00